Time,TemperatureF,DewpointF,PressureIn,WindDirection,WindDirectionDegrees,WindSpeedMPH,WindSpeedGustMPH,Humidity,HourlyPrecipIn,Conditions,Clouds,dailyrainin,SoftwareType,DateUTC
2013-03-25 00:04:00,31.1,17.2,30.10,West,274,8.3,8.3,56,0.00,,,0.00,VWS V13.01,2013-03-25 05:04:00,
2013-03-25 00:09:00,31.3,17.4,30.10,NW,320,6.3,8.1,56,0.00,,,0.00,VWS V13.01,2013-03-25 05:09:00,
2013-03-25 00:14:00,31.3,17.4,30.10,WNW,290,4.0,5.8,56,0.00,,,0.00,VWS V13.01,2013-03-25 05:14:00,
2013-03-25 00:19:00,31.1,17.2,30.10,NW,313,6.3,8.1,56,0.00,,,0.00,VWS V13.01,2013-03-25 05:19:00,
2013-03-25 00:24:00,31.1,17.2,30.10,NW,315,8.3,8.3,56,0.00,,,0.00,VWS V13.01,2013-03-25 05:24:00,
2013-03-25 00:29:00,31.1,17.2,30.10,WNW,287,5.4,5.8,56,0.00,,,0.00,VWS V13.01,2013-03-25 05:29:00,
2013-03-25 00:34:00,31.1,17.2,30.10,WSW,252,8.1,8.3,56,0.00,,,0.00,VWS V13.01,2013-03-25 05:34:00,
2013-03-25 00:39:00,31.1,17.2,30.10,NW,310,4.5,5.8,56,0.00,,,0.00,VWS V13.01,2013-03-25 05:39:00,
2013-03-25 00:44:00,30.9,17.1,30.10,West,269,4.0,10.1,56,0.00,,,0.00,VWS V13.01,2013-03-25 05:44:00,
2013-03-25 00:49:00,30.9,17.1,30.10,WSW,253,4.0,4.0,56,0.00,,,0.00,VWS V13.01,2013-03-25 05:49:00,
2013-03-25 00:54:00,30.7,16.9,30.10,West,266,5.8,5.8,56,0.00,,,0.00,VWS V13.01,2013-03-25 05:54:00,
2013-03-25 00:59:00,30.7,16.9,30.10,WSW,256,10.5,10.5,56,0.00,,,0.00,VWS V13.01,2013-03-25 05:59:00,
2013-03-25 01:04:00,30.7,16.9,30.10,SSW,208,3.1,4.9,56,0.00,,,0.00,VWS V13.01,2013-03-25 06:04:00,
2013-03-25 01:09:00,30.7,16.9,30.10,West,264,5.4,7.6,56,0.00,,,0.00,VWS V13.01,2013-03-25 06:09:00,
2013-03-25 01:14:00,30.7,17.3,30.10,WSW,240,6.3,6.3,57,0.00,,,0.00,VWS V13.01,2013-03-25 06:14:00,
2013-03-25 01:19:00,30.5,17.1,30.10,West,259,7.6,7.6,57,0.00,,,0.00,VWS V13.01,2013-03-25 06:19:00,
2013-03-25 01:24:00,30.5,17.5,30.10,WSW,237,5.4,5.8,58,0.00,,,0.00,VWS V13.01,2013-03-25 06:24:00,
2013-03-25 01:29:00,30.2,17.6,30.10,WSW,237,6.3,6.3,59,0.00,,,0.00,VWS V13.01,2013-03-25 06:29:00,
2013-03-25 01:34:00,30.0,17.8,30.10,WSW,238,4.9,4.9,60,0.00,,,0.00,VWS V13.01,2013-03-25 06:34:00,
2013-03-25 01:39:00,29.6,17.5,30.10,SW,230,6.3,6.3,60,0.00,,,0.00,VWS V13.01,2013-03-25 06:39:00,
2013-03-25 01:44:00,29.3,17.5,30.10,West,264,5.4,5.4,61,0.00,,,0.00,VWS V13.01,2013-03-25 06:44:00,
2013-03-25 01:49:00,29.1,17.3,30.10,WSW,245,3.6,3.6,61,0.00,,,0.00,VWS V13.01,2013-03-25 06:49:00,
2013-03-25 01:54:00,29.1,17.3,30.10,WSW,242,2.7,3.6,61,0.00,,,0.00,VWS V13.01,2013-03-25 06:54:00,
2013-03-25 01:59:00,28.9,17.2,30.10,SW,228,3.1,3.6,61,0.00,,,0.00,VWS V13.01,2013-03-25 06:59:00,
2013-03-25 02:04:00,28.6,16.8,30.10,SW,223,4.0,4.0,61,0.00,,,0.00,VWS V13.01,2013-03-25 07:04:00,
2013-03-25 02:09:00,28.6,16.8,30.10,SSW,205,2.7,2.7,61,0.00,,,0.00,VWS V13.01,2013-03-25 07:09:00,
2013-03-25 02:14:00,28.2,16.9,30.10,SW,234,0.0,0.0,62,0.00,,,0.00,VWS V13.01,2013-03-25 07:14:00,
2013-03-25 02:19:00,28.2,17.2,30.10,WSW,246,5.8,9.6,63,0.00,,,0.00,VWS V13.01,2013-03-25 07:19:00,
2013-03-25 02:24:00,28.2,17.6,30.10,SW,235,4.5,5.8,64,0.00,,,0.00,VWS V13.01,2013-03-25 07:24:00,
2013-03-25 02:29:00,28.0,17.4,30.10,SW,234,5.4,5.8,64,0.00,,,0.00,VWS V13.01,2013-03-25 07:29:00,
2013-03-25 02:34:00,27.8,17.6,30.10,WSW,239,5.4,5.4,65,0.00,,,0.00,VWS V13.01,2013-03-25 07:34:00,
2013-03-25 02:39:00,27.7,17.5,30.10,SW,222,5.4,8.1,65,0.00,,,0.00,VWS V13.01,2013-03-25 07:39:00,
2013-03-25 02:44:00,27.7,17.8,30.10,WSW,241,5.4,6.3,66,0.00,,,0.00,VWS V13.01,2013-03-25 07:44:00,
2013-03-25 02:49:00,27.5,17.6,30.10,SW,229,6.3,7.6,66,0.00,,,0.00,VWS V13.01,2013-03-25 07:49:00,
2013-03-25 02:54:00,27.5,17.6,30.10,WSW,238,7.6,7.6,66,0.00,,,0.00,VWS V13.01,2013-03-25 07:54:00,
2013-03-25 02:59:00,27.5,17.6,30.10,WSW,251,4.0,5.4,66,0.00,,,0.00,VWS V13.01,2013-03-25 07:59:00,
2013-03-25 03:04:00,27.1,17.3,30.10,WSW,239,4.9,6.3,66,0.00,,,0.00,VWS V13.01,2013-03-25 08:04:00,
2013-03-25 03:09:00,27.1,17.3,30.10,WSW,239,4.0,4.0,66,0.00,,,0.00,VWS V13.01,2013-03-25 08:09:00,
2013-03-25 03:14:00,27.1,17.6,30.10,WSW,256,3.6,5.4,67,0.00,,,0.00,VWS V13.01,2013-03-25 08:14:00,
2013-03-25 03:19:00,27.1,17.6,30.10,SW,215,8.1,8.1,67,0.00,,,0.00,VWS V13.01,2013-03-25 08:19:00,
2013-03-25 03:24:00,26.9,17.5,30.10,SW,228,5.4,5.4,67,0.00,,,0.00,VWS V13.01,2013-03-25 08:24:00,
2013-03-25 03:29:00,26.9,17.5,30.10,WSW,248,5.8,6.3,67,0.00,,,0.00,VWS V13.01,2013-03-25 08:29:00,
2013-03-25 03:34:00,26.8,17.6,30.10,SW,232,5.8,6.3,68,0.00,,,0.00,VWS V13.01,2013-03-25 08:34:00,
2013-03-25 03:39:00,26.6,17.5,30.10,SW,235,3.6,5.8,68,0.00,,,0.00,VWS V13.01,2013-03-25 08:39:00,
2013-03-25 03:44:00,26.6,17.8,30.10,SW,219,4.9,5.8,69,0.00,,,0.00,VWS V13.01,2013-03-25 08:44:00,
2013-03-25 03:49:00,26.4,18.0,30.10,SW,227,6.3,6.3,70,0.00,,,0.00,VWS V13.01,2013-03-25 08:49:00,
2013-03-25 03:54:00,26.4,18.3,30.10,WSW,240,4.9,6.3,71,0.00,,,0.00,VWS V13.01,2013-03-25 08:54:00,
2013-03-25 03:59:00,26.2,18.1,30.10,WSW,243,5.8,5.8,71,0.00,,,0.00,VWS V13.01,2013-03-25 08:59:00,
2013-03-25 04:04:00,26.0,17.9,30.10,WSW,257,5.4,5.8,71,0.00,,,0.00,VWS V13.01,2013-03-25 09:04:00,
2013-03-25 04:09:00,26.0,17.9,30.10,SW,217,4.0,5.8,71,0.00,,,0.00,VWS V13.01,2013-03-25 09:09:00,
2013-03-25 04:14:00,25.9,18.1,30.10,WSW,238,5.4,5.8,72,0.00,,,0.00,VWS V13.01,2013-03-25 09:14:00,
2013-03-25 04:19:00,25.9,18.1,30.10,WSW,238,4.0,5.4,72,0.00,,,0.00,VWS V13.01,2013-03-25 09:19:00,
2013-03-25 04:24:00,25.9,18.1,30.10,WSW,244,7.6,7.6,72,0.00,,,0.00,VWS V13.01,2013-03-25 09:24:00,
2013-03-25 04:29:00,25.7,18.2,30.10,WSW,237,5.4,5.8,73,0.00,,,0.00,VWS V13.01,2013-03-25 09:29:00,
2013-03-25 04:34:00,25.7,18.2,30.10,SW,235,4.5,6.3,73,0.00,,,0.00,VWS V13.01,2013-03-25 09:34:00,
2013-03-25 04:39:00,25.7,18.2,30.10,SW,228,4.9,5.8,73,0.00,,,0.00,VWS V13.01,2013-03-25 09:39:00,
2013-03-25 04:44:00,25.5,18.1,30.10,SSW,203,5.8,5.8,73,0.00,,,0.00,VWS V13.01,2013-03-25 09:44:00,
2013-03-25 04:49:00,25.5,18.1,30.10,SW,235,4.0,5.4,73,0.00,,,0.00,VWS V13.01,2013-03-25 09:49:00,
2013-03-25 04:54:00,25.5,18.4,30.10,SW,216,3.6,3.6,74,0.00,,,0.00,VWS V13.01,2013-03-25 09:54:00,
2013-03-25 04:59:00,25.5,18.4,30.10,WSW,240,4.0,4.5,74,0.00,,,0.00,VWS V13.01,2013-03-25 09:59:00,
2013-03-25 05:04:00,25.5,18.1,30.10,WSW,238,3.1,4.0,73,0.00,,,0.00,VWS V13.01,2013-03-25 10:04:00,
2013-03-25 05:09:00,25.3,17.9,30.10,WSW,237,3.1,3.6,73,0.00,,,0.00,VWS V13.01,2013-03-25 10:09:00,
2013-03-25 05:14:00,25.1,17.7,30.10,SW,216,2.7,3.1,73,0.00,,,0.00,VWS V13.01,2013-03-25 10:14:00,
2013-03-25 05:19:00,25.1,17.7,30.10,SW,219,0.0,2.2,73,0.00,,,0.00,VWS V13.01,2013-03-25 10:19:00,
2013-03-25 05:24:00,25.1,17.7,30.10,SSW,195,2.7,2.7,73,0.00,,,0.00,VWS V13.01,2013-03-25 10:24:00,
2013-03-25 05:29:00,25.1,17.7,30.10,South,190,2.2,2.2,73,0.00,,,0.00,VWS V13.01,2013-03-25 10:29:00,
2013-03-25 05:34:00,25.1,17.7,30.10,South,189,2.2,2.7,73,0.00,,,0.00,VWS V13.01,2013-03-25 10:34:00,
2013-03-25 05:39:00,25.0,17.5,30.10,South,190,0.0,0.0,73,0.00,,,0.00,VWS V13.01,2013-03-25 10:39:00,
2013-03-25 05:44:00,24.8,17.4,30.10,South,190,0.0,0.0,73,0.00,,,0.00,VWS V13.01,2013-03-25 10:44:00,
2013-03-25 05:49:00,24.8,17.4,30.10,South,190,0.0,0.0,73,0.00,,,0.00,VWS V13.01,2013-03-25 10:49:00,
2013-03-25 05:54:00,24.6,17.5,30.10,South,190,0.0,0.0,74,0.00,,,0.00,VWS V13.01,2013-03-25 10:54:00,
2013-03-25 05:59:00,24.8,18.0,30.10,SW,222,4.0,4.0,75,0.00,,,0.00,VWS V13.01,2013-03-25 10:59:00,
2013-03-25 06:04:00,25.0,17.9,30.10,SW,233,4.0,5.4,74,0.00,,,0.00,VWS V13.01,2013-03-25 11:04:00,
2013-03-25 06:09:00,25.3,17.9,30.10,WSW,258,5.8,6.3,73,0.00,,,0.00,VWS V13.01,2013-03-25 11:09:00,
2013-03-25 06:14:00,25.5,18.1,30.10,West,268,4.5,5.8,73,0.00,,,0.00,VWS V13.01,2013-03-25 11:14:00,
2013-03-25 06:19:00,25.5,18.1,30.10,SW,225,2.7,3.6,73,0.00,,,0.00,VWS V13.01,2013-03-25 11:19:00,
2013-03-25 06:24:00,25.1,17.7,30.10,SW,230,3.6,3.6,73,0.00,,,0.00,VWS V13.01,2013-03-25 11:24:00,
2013-03-25 06:29:00,25.1,18.0,30.10,SW,227,3.6,4.9,74,0.00,,,0.00,VWS V13.01,2013-03-25 11:29:00,
2013-03-25 06:34:00,25.0,17.9,30.10,SW,228,3.1,4.0,74,0.00,,,0.00,VWS V13.01,2013-03-25 11:34:00,
2013-03-25 06:39:00,25.0,17.9,30.10,WSW,237,4.0,4.9,74,0.00,,,0.00,VWS V13.01,2013-03-25 11:39:00,
2013-03-25 06:44:00,25.1,18.0,30.10,SW,214,5.4,5.8,74,0.00,,,0.00,VWS V13.01,2013-03-25 11:44:00,
2013-03-25 06:49:00,25.1,18.0,30.10,WSW,240,5.8,5.8,74,0.00,,,0.00,VWS V13.01,2013-03-25 11:49:00,
2013-03-25 06:54:00,25.1,18.0,30.10,WSW,247,5.4,5.8,74,0.00,,,0.00,VWS V13.01,2013-03-25 11:54:00,
2013-03-25 06:59:00,25.1,18.0,30.10,SW,220,5.4,5.8,74,0.00,,,0.00,VWS V13.01,2013-03-25 11:59:00,
2013-03-25 07:04:00,25.1,17.7,30.10,SW,236,4.9,4.9,73,0.00,,,0.00,VWS V13.01,2013-03-25 12:04:00,
2013-03-25 07:09:00,25.1,17.7,30.10,WSW,246,5.8,5.8,73,0.00,,,0.00,VWS V13.01,2013-03-25 12:09:00,
2013-03-25 07:14:00,25.1,17.7,30.10,WSW,244,4.5,6.3,73,0.00,,,0.00,VWS V13.01,2013-03-25 12:14:00,
2013-03-25 07:19:00,25.1,17.7,30.10,WSW,243,4.9,4.9,73,0.00,,,0.00,VWS V13.01,2013-03-25 12:19:00,
2013-03-25 07:24:00,25.1,17.7,30.10,SW,233,4.9,6.3,73,0.00,,,0.00,VWS V13.01,2013-03-25 12:24:00,
2013-03-25 07:29:00,25.3,17.9,30.10,SW,224,5.8,5.8,73,0.00,,,0.00,VWS V13.01,2013-03-25 12:29:00,
2013-03-25 07:34:00,25.5,18.1,30.10,SW,234,4.9,4.9,73,0.00,,,0.00,VWS V13.01,2013-03-25 12:34:00,
2013-03-25 07:39:00,25.7,17.9,30.10,WSW,245,5.4,5.4,72,0.00,,,0.00,VWS V13.01,2013-03-25 12:39:00,
2013-03-25 07:44:00,25.9,17.8,30.10,SW,232,5.4,5.8,71,0.00,,,0.00,VWS V13.01,2013-03-25 12:44:00,
2013-03-25 07:49:00,26.4,18.3,30.10,SW,226,4.0,6.3,71,0.00,,,0.00,VWS V13.01,2013-03-25 12:49:00,
2013-03-25 07:54:00,26.8,18.0,30.10,SW,222,5.4,5.8,69,0.00,,,0.00,VWS V13.01,2013-03-25 12:54:00,
2013-03-25 07:59:00,27.1,17.6,30.13,WSW,245,4.9,8.1,67,0.00,,,0.00,VWS V13.01,2013-03-25 12:59:00,
2013-03-25 08:04:00,27.5,18.0,30.13,West,261,4.0,4.0,67,0.00,,,0.00,VWS V13.01,2013-03-25 13:04:00,
2013-03-25 08:09:00,27.8,17.6,30.13,West,261,5.8,6.3,65,0.00,,,0.00,VWS V13.01,2013-03-25 13:09:00,
2013-03-25 08:14:00,28.2,17.6,30.13,WSW,253,5.4,8.7,64,0.00,,,0.00,VWS V13.01,2013-03-25 13:14:00,
2013-03-25 08:19:00,28.4,17.4,30.13,West,259,7.6,10.1,63,0.00,,,0.00,VWS V13.01,2013-03-25 13:19:00,
2013-03-25 08:24:00,28.7,17.8,30.13,WSW,251,3.6,6.3,63,0.00,,,0.00,VWS V13.01,2013-03-25 13:24:00,
2013-03-25 08:29:00,29.1,17.7,30.13,WSW,240,5.4,5.8,62,0.00,,,0.00,VWS V13.01,2013-03-25 13:29:00,
2013-03-25 08:34:00,29.5,17.7,30.13,West,264,8.3,10.1,61,0.00,,,0.00,VWS V13.01,2013-03-25 13:34:00,
2013-03-25 08:39:00,29.8,18.0,30.13,WSW,240,5.8,7.2,61,0.00,,,0.00,VWS V13.01,2013-03-25 13:39:00,
2013-03-25 08:44:00,30.2,18.4,30.13,SW,232,5.8,10.1,61,0.00,,,0.00,VWS V13.01,2013-03-25 13:44:00,
2013-03-25 08:49:00,30.4,18.1,30.13,WSW,254,5.8,5.8,60,0.00,,,0.00,VWS V13.01,2013-03-25 13:49:00,
2013-03-25 08:54:00,30.7,18.1,30.13,WSW,256,5.8,7.6,59,0.00,,,0.00,VWS V13.01,2013-03-25 13:54:00,
2013-03-25 08:59:00,31.1,18.0,30.16,WNW,283,12.8,12.8,58,0.00,,,0.00,VWS V13.01,2013-03-25 13:59:00,
2013-03-25 09:04:00,31.1,17.2,30.16,West,272,5.8,8.1,56,0.00,,,0.00,VWS V13.01,2013-03-25 14:04:00,
2013-03-25 09:09:00,31.4,17.1,30.16,WNW,300,8.1,8.3,55,0.00,,,0.00,VWS V13.01,2013-03-25 14:09:00,
2013-03-25 09:14:00,31.6,17.3,30.16,West,267,5.4,8.1,55,0.00,,,0.00,VWS V13.01,2013-03-25 14:14:00,
2013-03-25 09:19:00,31.8,16.6,30.16,WNW,288,8.1,15.0,53,0.00,,,0.00,VWS V13.01,2013-03-25 14:19:00,
2013-03-25 09:24:00,31.4,16.3,30.16,West,264,10.5,12.3,53,0.00,,,0.00,VWS V13.01,2013-03-25 14:24:00,
2013-03-25 09:29:00,31.6,16.9,30.16,WNW,289,4.0,7.6,54,0.00,,,0.00,VWS V13.01,2013-03-25 14:29:00,
2013-03-25 09:34:00,31.4,16.3,30.16,WNW,285,7.6,9.6,53,0.00,,,0.00,VWS V13.01,2013-03-25 14:34:00,
2013-03-25 09:39:00,31.6,16.5,30.16,West,265,7.6,7.6,53,0.00,,,0.00,VWS V13.01,2013-03-25 14:39:00,
2013-03-25 09:44:00,32.0,16.8,30.16,West,259,11.0,12.8,53,0.00,,,0.00,VWS V13.01,2013-03-25 14:44:00,
2013-03-25 09:49:00,31.8,16.6,30.16,West,279,8.1,8.1,53,0.00,,,0.00,VWS V13.01,2013-03-25 14:49:00,
2013-03-25 09:54:00,31.6,16.5,30.16,WSW,258,10.1,12.8,53,0.00,,,0.00,VWS V13.01,2013-03-25 14:54:00,
2013-03-25 09:59:00,31.8,16.2,30.19,West,260,15.0,15.0,52,0.00,,,0.00,VWS V13.01,2013-03-25 14:59:00,
2013-03-25 10:04:00,32.2,17.0,30.19,WSW,253,8.3,8.7,53,0.00,,,0.00,VWS V13.01,2013-03-25 15:04:00,
2013-03-25 10:09:00,31.8,16.6,30.19,West,268,8.3,12.8,53,0.00,,,0.00,VWS V13.01,2013-03-25 15:09:00,
2013-03-25 10:14:00,32.0,16.8,30.19,West,261,8.1,9.6,53,0.00,,,0.00,VWS V13.01,2013-03-25 15:14:00,
2013-03-25 10:19:00,32.0,16.4,30.19,West,262,12.8,15.9,52,0.00,,,0.00,VWS V13.01,2013-03-25 15:19:00,
2013-03-25 10:24:00,32.3,17.1,30.19,WSW,251,7.2,13.2,53,0.00,,,0.00,VWS V13.01,2013-03-25 15:24:00,
2013-03-25 10:29:00,32.5,16.9,30.19,NW,315,6.3,8.3,52,0.00,,,0.00,VWS V13.01,2013-03-25 15:29:00,
2013-03-25 10:34:00,32.9,17.2,30.19,NW,315,4.0,8.3,52,0.00,,,0.00,VWS V13.01,2013-03-25 15:34:00,
2013-03-25 10:39:00,33.2,17.5,30.19,WNW,296,5.4,10.1,52,0.00,,,0.00,VWS V13.01,2013-03-25 15:39:00,
2013-03-25 10:44:00,33.1,17.8,30.19,NW,308,8.1,11.0,53,0.00,,,0.00,VWS V13.01,2013-03-25 15:44:00,
2013-03-25 10:49:00,33.2,17.5,30.19,West,265,8.1,8.1,52,0.00,,,0.00,VWS V13.01,2013-03-25 15:49:00,
2013-03-25 10:54:00,32.9,17.6,30.19,West,266,8.1,12.3,53,0.00,,,0.00,VWS V13.01,2013-03-25 15:54:00,
2013-03-25 10:59:00,32.9,17.6,30.22,West,259,8.3,10.5,53,0.00,,,0.00,VWS V13.01,2013-03-25 15:59:00,
2013-03-25 11:04:00,33.1,17.8,30.22,West,267,11.4,11.4,53,0.00,,,0.00,VWS V13.01,2013-03-25 16:04:00,
2013-03-25 11:09:00,33.4,18.1,30.22,West,259,12.3,16.3,53,0.00,,,0.00,VWS V13.01,2013-03-25 16:09:00,
2013-03-25 11:14:00,33.2,18.0,30.22,WSW,241,5.8,11.0,53,0.00,,,0.00,VWS V13.01,2013-03-25 16:14:00,
2013-03-25 11:19:00,34.1,18.4,30.22,West,263,8.3,15.9,52,0.00,,,0.00,VWS V13.01,2013-03-25 16:19:00,
2013-03-25 11:24:00,33.8,18.0,30.22,WSW,257,4.0,8.1,52,0.00,,,0.00,VWS V13.01,2013-03-25 16:24:00,
2013-03-25 11:29:00,34.3,18.5,30.22,WNW,295,5.4,12.3,52,0.00,,,0.00,VWS V13.01,2013-03-25 16:29:00,
2013-03-25 11:34:00,34.0,18.2,30.22,West,269,15.0,15.0,52,0.00,,,0.00,VWS V13.01,2013-03-25 16:34:00,
2013-03-25 11:39:00,34.0,18.2,30.22,NW,322,8.7,11.9,52,0.00,,,0.00,VWS V13.01,2013-03-25 16:39:00,
2013-03-25 11:44:00,34.3,18.5,30.22,NW,309,5.4,8.7,52,0.00,,,0.00,VWS V13.01,2013-03-25 16:44:00,
2013-03-25 11:49:00,34.0,17.8,30.22,NW,304,11.0,11.0,51,0.00,,,0.00,VWS V13.01,2013-03-25 16:49:00,
2013-03-25 11:54:00,34.3,18.5,30.22,WNW,284,8.3,8.3,52,0.00,,,0.00,VWS V13.01,2013-03-25 16:54:00,
2013-03-25 11:59:00,34.1,18.4,30.25,WSW,255,6.3,8.1,52,0.00,,,0.00,VWS V13.01,2013-03-25 16:59:00,
2013-03-25 12:04:00,34.7,19.3,30.25,WNW,286,5.4,9.6,53,0.00,,,0.00,VWS V13.01,2013-03-25 17:04:00,
2013-03-25 12:09:00,34.5,18.7,30.25,NNW,328,10.1,10.1,52,0.00,,,0.00,VWS V13.01,2013-03-25 17:09:00,
2013-03-25 12:14:00,34.7,18.4,30.25,West,275,8.3,8.7,51,0.00,,,0.00,VWS V13.01,2013-03-25 17:14:00,
2013-03-25 12:19:00,34.7,18.9,30.25,WSW,256,5.4,11.0,52,0.00,,,0.00,VWS V13.01,2013-03-25 17:19:00,
2013-03-25 12:24:00,34.0,18.2,30.25,WNW,287,5.8,8.1,52,0.00,,,0.00,VWS V13.01,2013-03-25 17:24:00,
2013-03-25 12:29:00,34.3,18.5,30.25,WNW,301,6.3,12.8,52,0.00,,,0.00,VWS V13.01,2013-03-25 17:29:00,
2013-03-25 12:34:00,34.0,18.2,30.25,WNW,294,6.3,8.3,52,0.00,,,0.00,VWS V13.01,2013-03-25 17:34:00,
2013-03-25 12:39:00,34.1,18.4,30.25,WSW,252,9.2,9.2,52,0.00,,,0.00,VWS V13.01,2013-03-25 17:39:00,
2013-03-25 12:44:00,34.1,18.4,30.25,NW,306,8.7,15.0,52,0.00,,,0.00,VWS V13.01,2013-03-25 17:44:00,
2013-03-25 12:49:00,34.1,18.4,30.25,WNW,285,4.0,8.1,52,0.00,,,0.00,VWS V13.01,2013-03-25 17:49:00,
2013-03-25 12:54:00,34.1,18.4,30.25,West,274,7.6,7.6,52,0.00,,,0.00,VWS V13.01,2013-03-25 17:54:00,
2013-03-25 12:59:00,33.8,18.0,30.25,West,265,8.3,12.8,52,0.00,,,0.00,VWS V13.01,2013-03-25 17:59:00,
2013-03-25 13:04:00,33.6,17.9,30.25,West,278,6.3,8.3,52,0.00,,,0.00,VWS V13.01,2013-03-25 18:04:00,
2013-03-25 13:09:00,33.6,18.7,30.25,WSW,242,6.3,6.3,54,0.00,,,0.00,VWS V13.01,2013-03-25 18:09:00,
2013-03-25 13:14:00,33.8,18.5,30.25,WSW,257,8.1,12.3,53,0.00,,,0.00,VWS V13.01,2013-03-25 18:14:00,
2013-03-25 13:19:00,33.6,17.9,30.25,WNW,287,6.3,8.7,52,0.00,,,0.00,VWS V13.01,2013-03-25 18:19:00,
2013-03-25 13:24:00,33.8,18.0,30.25,WSW,238,10.1,10.5,52,0.00,,,0.00,VWS V13.01,2013-03-25 18:24:00,
2013-03-25 13:29:00,33.8,18.5,30.25,WNW,286,8.1,10.5,53,0.00,,,0.00,VWS V13.01,2013-03-25 18:29:00,
2013-03-25 13:34:00,33.8,18.0,30.25,West,260,9.2,9.2,52,0.00,,,0.00,VWS V13.01,2013-03-25 18:34:00,
2013-03-25 13:39:00,34.0,18.6,30.25,WSW,252,7.6,10.1,53,0.00,,,0.00,VWS V13.01,2013-03-25 18:39:00,
2013-03-25 13:44:00,34.0,18.6,30.25,WSW,242,11.0,11.0,53,0.00,,,0.00,VWS V13.01,2013-03-25 18:44:00,
2013-03-25 13:49:00,34.1,18.8,30.25,WSW,243,10.1,10.1,53,0.00,,,0.00,VWS V13.01,2013-03-25 18:49:00,
2013-03-25 13:54:00,34.1,18.8,30.25,West,274,10.5,15.0,53,0.00,,,0.00,VWS V13.01,2013-03-25 18:54:00,
2013-03-25 13:59:00,34.1,18.8,30.25,WSW,246,8.3,11.9,53,0.00,,,0.00,VWS V13.01,2013-03-25 18:59:00,
2013-03-25 14:04:00,34.3,19.0,30.25,West,265,12.3,12.8,53,0.00,,,0.00,VWS V13.01,2013-03-25 19:04:00,
2013-03-25 14:09:00,34.5,19.1,30.25,SW,229,5.8,6.3,53,0.00,,,0.00,VWS V13.01,2013-03-25 19:09:00,
2013-03-25 14:14:00,34.7,18.9,30.25,WNW,289,6.3,8.3,52,0.00,,,0.00,VWS V13.01,2013-03-25 19:14:00,
2013-03-25 14:19:00,34.9,19.5,30.25,NW,320,4.9,6.3,53,0.00,,,0.00,VWS V13.01,2013-03-25 19:19:00,
2013-03-25 14:24:00,35.0,20.1,30.25,West,264,5.8,5.8,54,0.00,,,0.00,VWS V13.01,2013-03-25 19:24:00,
2013-03-25 14:29:00,35.0,19.6,30.25,WSW,248,9.2,11.0,53,0.00,,,0.00,VWS V13.01,2013-03-25 19:29:00,
2013-03-25 14:34:00,35.0,19.6,30.25,West,261,6.3,12.8,53,0.00,,,0.00,VWS V13.01,2013-03-25 19:34:00,
2013-03-25 14:39:00,35.0,19.6,30.25,WSW,245,6.3,11.4,53,0.00,,,0.00,VWS V13.01,2013-03-25 19:39:00,
2013-03-25 14:44:00,35.0,19.6,30.25,SW,231,11.0,15.0,53,0.00,,,0.00,VWS V13.01,2013-03-25 19:44:00,
2013-03-25 14:49:00,35.6,19.7,30.25,NNW,344,8.3,8.3,52,0.00,,,0.00,VWS V13.01,2013-03-25 19:49:00,
2013-03-25 14:54:00,35.4,19.5,30.25,West,267,8.3,11.0,52,0.00,,,0.00,VWS V13.01,2013-03-25 19:54:00,
2013-03-25 14:59:00,35.9,19.6,30.25,West,260,8.3,10.5,51,0.00,,,0.00,VWS V13.01,2013-03-25 19:59:00,
2013-03-25 15:04:00,35.9,20.5,30.25,WSW,251,8.7,10.1,53,0.00,,,0.00,VWS V13.01,2013-03-25 20:04:00,
2013-03-25 15:09:00,36.5,20.5,30.25,West,267,7.2,7.6,52,0.00,,,0.00,VWS V13.01,2013-03-25 20:09:00,
2013-03-25 15:14:00,36.5,20.5,30.25,WSW,241,10.5,10.5,52,0.00,,,0.00,VWS V13.01,2013-03-25 20:14:00,
2013-03-25 15:19:00,36.3,19.9,30.25,West,276,10.1,15.0,51,0.00,,,0.00,VWS V13.01,2013-03-25 20:19:00,
2013-03-25 15:24:00,36.3,19.9,30.25,West,277,10.5,11.9,51,0.00,,,0.00,VWS V13.01,2013-03-25 20:24:00,
2013-03-25 15:29:00,35.9,19.6,30.25,West,276,11.0,16.3,51,0.00,,,0.00,VWS V13.01,2013-03-25 20:29:00,
2013-03-25 15:34:00,36.1,19.8,30.25,WNW,289,5.4,8.3,51,0.00,,,0.00,VWS V13.01,2013-03-25 20:34:00,
2013-03-25 15:39:00,36.5,20.1,30.25,West,266,5.4,8.1,51,0.00,,,0.00,VWS V13.01,2013-03-25 20:39:00,
2013-03-25 15:44:00,35.9,19.6,30.25,WSW,248,7.6,7.6,51,0.00,,,0.00,VWS V13.01,2013-03-25 20:44:00,
2013-03-25 15:49:00,36.1,19.8,30.25,West,267,8.3,12.8,51,0.00,,,0.00,VWS V13.01,2013-03-25 20:49:00,
2013-03-25 15:54:00,36.5,20.1,30.25,West,267,10.1,10.1,51,0.00,,,0.00,VWS V13.01,2013-03-25 20:54:00,
2013-03-25 15:59:00,36.1,19.8,30.25,WSW,255,6.3,7.6,51,0.00,,,0.00,VWS V13.01,2013-03-25 20:59:00,
2013-03-25 16:04:00,36.1,19.8,30.25,WSW,241,14.1,15.0,51,0.00,,,0.00,VWS V13.01,2013-03-25 21:04:00,
2013-03-25 16:09:00,36.3,19.9,30.25,SW,235,12.8,12.8,51,0.00,,,0.00,VWS V13.01,2013-03-25 21:09:00,
2013-03-25 16:14:00,36.5,20.1,30.22,West,270,9.6,9.6,51,0.00,,,0.00,VWS V13.01,2013-03-25 21:14:00,
2013-03-25 16:19:00,36.5,20.1,30.22,WSW,256,8.1,8.1,51,0.00,,,0.00,VWS V13.01,2013-03-25 21:19:00,
2013-03-25 16:24:00,36.5,20.1,30.22,WSW,253,10.5,10.5,51,0.00,,,0.00,VWS V13.01,2013-03-25 21:24:00,
2013-03-25 16:29:00,36.8,20.4,30.25,WSW,255,10.5,11.0,51,0.00,,,0.00,VWS V13.01,2013-03-25 21:29:00,
2013-03-25 16:34:00,37.2,20.3,30.25,West,269,5.8,6.3,50,0.00,,,0.00,VWS V13.01,2013-03-25 21:34:00,
2013-03-25 16:39:00,37.0,20.6,30.25,WSW,241,9.2,12.3,51,0.00,,,0.00,VWS V13.01,2013-03-25 21:39:00,
2013-03-25 16:44:00,36.7,20.2,30.25,West,261,12.3,12.3,51,0.00,,,0.00,VWS V13.01,2013-03-25 21:44:00,
2013-03-25 16:49:00,36.7,20.2,30.25,West,275,8.7,10.5,51,0.00,,,0.00,VWS V13.01,2013-03-25 21:49:00,
2013-03-25 16:54:00,36.7,20.2,30.25,WSW,254,8.3,11.0,51,0.00,,,0.00,VWS V13.01,2013-03-25 21:54:00,
2013-03-25 16:59:00,36.8,20.4,30.25,WSW,246,12.3,12.3,51,0.00,,,0.00,VWS V13.01,2013-03-25 21:59:00,
2013-03-25 17:04:00,36.7,19.8,30.25,WSW,250,10.1,10.1,50,0.00,,,0.00,VWS V13.01,2013-03-25 22:04:00,
2013-03-25 17:09:00,36.5,20.1,30.25,WSW,255,13.2,13.2,51,0.00,,,0.00,VWS V13.01,2013-03-25 22:09:00,
2013-03-25 17:14:00,36.7,20.2,30.22,WSW,246,9.2,9.2,51,0.00,,,0.00,VWS V13.01,2013-03-25 22:14:00,
2013-03-25 17:19:00,36.7,20.2,30.22,West,264,8.3,12.8,51,0.00,,,0.00,VWS V13.01,2013-03-25 22:19:00,
2013-03-25 17:24:00,36.5,20.1,30.22,WNW,286,7.6,11.0,51,0.00,,,0.00,VWS V13.01,2013-03-25 22:24:00,
2013-03-25 17:29:00,36.5,20.1,30.25,WNW,293,10.5,10.5,51,0.00,,,0.00,VWS V13.01,2013-03-25 22:29:00,
2013-03-25 17:34:00,36.3,19.9,30.25,West,273,5.4,5.4,51,0.00,,,0.00,VWS V13.01,2013-03-25 22:34:00,
2013-03-25 17:39:00,36.3,19.9,30.25,WNW,291,8.3,13.2,51,0.00,,,0.00,VWS V13.01,2013-03-25 22:39:00,
2013-03-25 17:44:00,36.8,20.4,30.25,WSW,245,5.8,5.8,51,0.00,,,0.00,VWS V13.01,2013-03-25 22:44:00,
2013-03-25 17:49:00,36.5,20.1,30.25,West,272,7.6,7.6,51,0.00,,,0.00,VWS V13.01,2013-03-25 22:49:00,
2013-03-25 17:54:00,36.3,19.9,30.25,West,259,7.6,7.6,51,0.00,,,0.00,VWS V13.01,2013-03-25 22:54:00,
2013-03-25 17:59:00,36.3,19.9,30.25,West,268,6.3,9.6,51,0.00,,,0.00,VWS V13.01,2013-03-25 22:59:00,
2013-03-25 18:04:00,36.1,19.8,30.25,West,263,5.8,6.7,51,0.00,,,0.00,VWS V13.01,2013-03-25 23:04:00,
2013-03-25 18:09:00,36.1,19.8,30.25,WSW,241,8.1,8.1,51,0.00,,,0.00,VWS V13.01,2013-03-25 23:09:00,
2013-03-25 18:14:00,36.3,19.9,30.25,West,263,4.0,6.3,51,0.00,,,0.00,VWS V13.01,2013-03-25 23:14:00,
2013-03-25 18:19:00,36.3,20.4,30.25,West,264,8.3,8.3,52,0.00,,,0.00,VWS V13.01,2013-03-25 23:19:00,
2013-03-25 18:24:00,36.1,19.8,30.25,WSW,256,8.3,10.1,51,0.00,,,0.00,VWS V13.01,2013-03-25 23:24:00,
2013-03-25 18:29:00,36.1,19.8,30.25,West,267,9.2,13.6,51,0.00,,,0.00,VWS V13.01,2013-03-25 23:29:00,
2013-03-25 18:34:00,36.1,19.8,30.25,West,260,10.1,10.1,51,0.00,,,0.00,VWS V13.01,2013-03-25 23:34:00,
2013-03-25 18:39:00,36.1,19.8,30.25,WSW,255,5.8,8.1,51,0.00,,,0.00,VWS V13.01,2013-03-25 23:39:00,
2013-03-25 18:44:00,35.9,19.6,30.22,West,259,5.4,8.7,51,0.00,,,0.00,VWS V13.01,2013-03-25 23:44:00,
2013-03-25 18:49:00,35.9,20.0,30.22,WSW,251,6.3,6.3,52,0.00,,,0.00,VWS V13.01,2013-03-25 23:49:00,
2013-03-25 18:54:00,35.9,20.0,30.22,WSW,251,5.4,5.8,52,0.00,,,0.00,VWS V13.01,2013-03-25 23:54:00,
2013-03-25 18:59:00,35.9,20.0,30.25,WSW,255,10.5,10.5,52,0.00,,,0.00,VWS V13.01,2013-03-25 23:59:00,
2013-03-25 19:04:00,35.9,20.0,30.25,SW,218,5.8,8.1,52,0.00,,,0.00,VWS V13.01,2013-03-26 00:04:00,
2013-03-25 19:09:00,35.8,19.9,30.25,WSW,245,8.7,8.7,52,0.00,,,0.00,VWS V13.01,2013-03-26 00:09:00,
2013-03-25 19:14:00,35.8,19.9,30.25,WSW,245,6.3,6.3,52,0.00,,,0.00,VWS V13.01,2013-03-26 00:14:00,
2013-03-25 19:19:00,35.6,19.7,30.25,WNW,292,5.4,8.1,52,0.00,,,0.00,VWS V13.01,2013-03-26 00:19:00,
2013-03-25 19:24:00,35.6,19.7,30.25,WSW,254,4.9,6.3,52,0.00,,,0.00,VWS V13.01,2013-03-26 00:24:00,
2013-03-25 19:29:00,35.6,19.7,30.25,West,279,8.7,8.7,52,0.00,,,0.00,VWS V13.01,2013-03-26 00:29:00,
2013-03-25 19:34:00,35.6,19.7,30.25,WSW,254,11.0,11.0,52,0.00,,,0.00,VWS V13.01,2013-03-26 00:34:00,
2013-03-25 19:39:00,35.4,20.0,30.25,WSW,247,4.9,5.8,53,0.00,,,0.00,VWS V13.01,2013-03-26 00:39:00,
2013-03-25 19:44:00,35.4,20.0,30.25,NW,304,4.0,5.4,53,0.00,,,0.00,VWS V13.01,2013-03-26 00:44:00,
2013-03-25 19:49:00,35.2,20.3,30.25,WNW,302,4.0,5.4,54,0.00,,,0.00,VWS V13.01,2013-03-26 00:49:00,
2013-03-25 19:54:00,35.0,20.1,30.25,NW,304,3.6,4.9,54,0.00,,,0.00,VWS V13.01,2013-03-26 00:54:00,
2013-03-25 19:59:00,34.9,19.9,30.28,WNW,299,5.4,8.7,54,0.00,,,0.00,VWS V13.01,2013-03-26 00:59:00,
2013-03-25 20:04:00,34.9,20.4,30.28,WNW,300,5.8,8.7,55,0.00,,,0.00,VWS V13.01,2013-03-26 01:04:00,
2013-03-25 20:09:00,34.7,20.2,30.28,West,276,3.6,3.6,55,0.00,,,0.00,VWS V13.01,2013-03-26 01:09:00,
2013-03-25 20:14:00,34.7,20.6,30.28,West,269,4.0,4.0,56,0.00,,,0.00,VWS V13.01,2013-03-26 01:14:00,
2013-03-25 20:19:00,34.5,20.9,30.28,West,275,4.0,5.4,57,0.00,,,0.00,VWS V13.01,2013-03-26 01:19:00,
2013-03-25 20:24:00,34.3,21.1,30.28,WSW,256,3.6,3.6,58,0.00,,,0.00,VWS V13.01,2013-03-26 01:24:00,
2013-03-25 20:29:00,34.1,20.9,30.28,WNW,291,4.9,5.8,58,0.00,,,0.00,VWS V13.01,2013-03-26 01:29:00,
2013-03-25 20:34:00,34.0,20.8,30.28,WNW,290,3.6,6.3,58,0.00,,,0.00,VWS V13.01,2013-03-26 01:34:00,
2013-03-25 20:39:00,34.0,21.2,30.28,West,279,7.6,7.6,59,0.00,,,0.00,VWS V13.01,2013-03-26 01:39:00,
2013-03-25 20:44:00,34.1,21.7,30.28,West,277,3.1,7.2,60,0.00,,,0.00,VWS V13.01,2013-03-26 01:44:00,
2013-03-25 20:49:00,34.0,21.5,30.28,West,259,2.7,5.4,60,0.00,,,0.00,VWS V13.01,2013-03-26 01:49:00,
2013-03-25 20:54:00,33.8,21.4,30.28,WNW,298,5.4,6.3,60,0.00,,,0.00,VWS V13.01,2013-03-26 01:54:00,
2013-03-25 20:59:00,33.8,21.4,30.28,WSW,246,5.8,6.3,60,0.00,,,0.00,VWS V13.01,2013-03-26 01:59:00,
2013-03-25 21:04:00,33.8,21.4,30.28,West,270,5.4,6.3,60,0.00,,,0.00,VWS V13.01,2013-03-26 02:04:00,
2013-03-25 21:09:00,33.6,21.2,30.28,WSW,254,6.3,8.3,60,0.00,,,0.00,VWS V13.01,2013-03-26 02:09:00,
2013-03-25 21:14:00,33.6,21.2,30.28,West,272,5.4,7.2,60,0.00,,,0.00,VWS V13.01,2013-03-26 02:14:00,
2013-03-25 21:19:00,33.4,21.0,30.28,West,277,3.6,5.8,60,0.00,,,0.00,VWS V13.01,2013-03-26 02:19:00,
2013-03-25 21:24:00,33.4,21.0,30.28,WSW,246,5.8,9.6,60,0.00,,,0.00,VWS V13.01,2013-03-26 02:24:00,
2013-03-25 21:29:00,33.4,20.6,30.31,WNW,285,5.4,8.3,59,0.00,,,0.00,VWS V13.01,2013-03-26 02:29:00,
2013-03-25 21:34:00,33.4,20.6,30.31,West,262,4.0,5.8,59,0.00,,,0.00,VWS V13.01,2013-03-26 02:34:00,
2013-03-25 21:39:00,33.2,20.9,30.31,WSW,252,4.9,5.4,60,0.00,,,0.00,VWS V13.01,2013-03-26 02:39:00,
2013-03-25 21:44:00,33.1,20.3,30.31,WSW,238,3.6,5.8,59,0.00,,,0.00,VWS V13.01,2013-03-26 02:44:00,
2013-03-25 21:49:00,32.9,19.7,30.31,West,260,4.9,4.9,58,0.00,,,0.00,VWS V13.01,2013-03-26 02:49:00,
2013-03-25 21:54:00,32.7,20.0,30.31,SW,233,5.4,5.4,59,0.00,,,0.00,VWS V13.01,2013-03-26 02:54:00,
2013-03-25 21:59:00,32.5,20.2,30.31,WSW,241,3.1,6.3,60,0.00,,,0.00,VWS V13.01,2013-03-26 02:59:00,
2013-03-25 22:04:00,32.2,19.9,30.31,WSW,245,2.7,3.1,60,0.00,,,0.00,VWS V13.01,2013-03-26 03:04:00,
2013-03-25 22:09:00,32.0,19.7,30.31,WSW,241,3.1,4.0,60,0.00,,,0.00,VWS V13.01,2013-03-26 03:09:00,
2013-03-25 22:14:00,31.8,19.5,30.31,WSW,243,5.4,5.4,60,0.00,,,0.00,VWS V13.01,2013-03-26 03:14:00,
2013-03-25 22:19:00,31.6,19.7,30.31,WSW,250,2.7,3.1,61,0.00,,,0.00,VWS V13.01,2013-03-26 03:19:00,
2013-03-25 22:24:00,31.4,19.6,30.31,WSW,249,2.2,3.1,61,0.00,,,0.00,VWS V13.01,2013-03-26 03:24:00,
2013-03-25 22:29:00,31.3,19.4,30.31,West,266,3.6,3.6,61,0.00,,,0.00,VWS V13.01,2013-03-26 03:29:00,
2013-03-25 22:34:00,31.3,19.4,30.31,WNW,286,2.2,2.7,61,0.00,,,0.00,VWS V13.01,2013-03-26 03:34:00,
2013-03-25 22:39:00,31.3,19.4,30.31,WSW,257,3.1,3.1,61,0.00,,,0.00,VWS V13.01,2013-03-26 03:39:00,
2013-03-25 22:44:00,31.1,19.2,30.31,SW,235,3.1,3.1,61,0.00,,,0.00,VWS V13.01,2013-03-26 03:44:00,
2013-03-25 22:49:00,31.1,19.6,30.31,West,259,0.0,2.2,62,0.00,,,0.00,VWS V13.01,2013-03-26 03:49:00,
2013-03-25 22:54:00,30.7,18.9,30.31,West,266,0.0,3.6,61,0.00,,,0.00,VWS V13.01,2013-03-26 03:54:00,
2013-03-25 22:59:00,30.7,19.3,30.31,SW,219,4.0,4.0,62,0.00,,,0.00,VWS V13.01,2013-03-26 03:59:00,
2013-03-25 23:00:00,30.7,19.3,30.31,SW,234,3.6,3.6,62,0.00,,,0.00,VWS V13.01,2013-03-26 04:00:00,
2013-03-25 23:05:00,30.7,19.3,30.31,WSW,252,4.9,4.9,62,0.00,,,0.00,VWS V13.01,2013-03-26 04:05:00,
2013-03-25 23:10:00,30.7,19.3,30.31,West,261,2.7,3.1,62,0.00,,,0.00,VWS V13.01,2013-03-26 04:10:00,
2013-03-25 23:15:00,30.4,18.9,30.31,WSW,246,2.7,3.6,62,0.00,,,0.00,VWS V13.01,2013-03-26 04:15:00,
2013-03-25 23:20:00,30.2,18.8,30.31,West,260,4.0,4.0,62,0.00,,,0.00,VWS V13.01,2013-03-26 04:20:00,
2013-03-25 23:25:00,30.2,18.8,30.31,WSW,256,3.1,4.0,62,0.00,,,0.00,VWS V13.01,2013-03-26 04:25:00,
2013-03-25 23:30:00,30.2,19.1,30.31,West,273,3.1,3.6,63,0.00,,,0.00,VWS V13.01,2013-03-26 04:30:00,
2013-03-25 23:35:00,30.2,19.1,30.31,WSW,255,6.3,6.3,63,0.00,,,0.00,VWS V13.01,2013-03-26 04:35:00,
2013-03-25 23:40:00,30.2,19.1,30.31,West,279,2.7,3.6,63,0.00,,,0.00,VWS V13.01,2013-03-26 04:40:00,
2013-03-25 23:45:00,30.2,18.8,30.31,West,273,2.7,2.7,62,0.00,,,0.00,VWS V13.01,2013-03-26 04:45:00,
2013-03-25 23:50:00,30.0,18.6,30.31,WSW,253,2.7,3.1,62,0.00,,,0.00,VWS V13.01,2013-03-26 04:50:00,
2013-03-25 23:55:00,29.8,18.8,30.31,West,269,2.7,4.0,63,0.00,,,0.00,VWS V13.01,2013-03-26 04:55:00,